Total_Precipitation_Accumulation
0.80 0.74 0.63 0.65 0.60 0.64 0.71 0.76 0.79 0.82 0.91 0.87 0.84 0.87 0.89 0.86 0.77 0.75 0.91 1.17 1.62 1.91 1.81 1.65 1.47 1.52 1.53 1.41 1.43 1.60 1.76 1.83 1.78 1.78 1.89 2.01 1.89 1.73 1.65 1.52 1.53 1.49 1.38
0.73 0.76 0.72 0.73 0.74 0.71 0.72 0.73 0.72 0.85 0.92 0.94 0.92 0.91 0.89 0.78 0.76 0.86 1.01 1.08 1.13 1.44 1.92 2.00 1.91 1.81 1.72 1.52 1.44 1.56 1.67 1.69 1.63 1.70 1.77 1.81 1.73 1.53 1.41 1.48 1.63 1.45 1.25
0.69 0.75 0.78 0.79 0.81 0.81 0.81 0.83 0.85 0.93 0.93 1.01 1.02 0.91 0.86 0.79 0.79 0.86 0.93 1.00 0.84 0.86 1.31 1.91 2.15 2.01 1.95 1.82 1.60 1.60 1.64 1.71 1.59 1.70 1.73 1.72 1.57 1.45 1.32 1.46 1.59 1.47 1.27
0.72 0.80 0.83 0.87 0.93 0.85 0.82 0.91 0.97 1.05 1.05 1.12 1.15 0.99 0.82 0.88 0.84 0.85 0.97 0.99 0.93 0.81 0.96 1.26 1.55 1.70 1.97 2.14 1.94 1.82 1.72 1.63 1.51 1.61 1.66 1.61 1.47 1.40 1.31 1.44 1.45 1.43 1.39
0.90 0.97 1.02 1.05 1.07 1.09 1.01 0.92 0.97 1.07 1.19 1.24 1.12 1.02 0.90 0.89 0.92 0.92 1.09 1.09 0.99 0.89 0.98 0.98 1.06 1.19 1.46 1.87 2.00 2.02 1.82 1.59 1.44 1.49 1.52 1.39 1.39 1.35 1.23 1.31 1.37 1.33 1.34
1.17 1.28 1.26 1.21 1.28 1.39 1.42 1.23 1.28 1.23 1.20 1.30 1.16 1.08 1.06 1.00 1.01 1.07 1.11 1.16 1.17 1.03 1.09 1.07 0.99 0.83 0.99 1.31 1.62 1.94 2.00 1.83 1.60 1.54 1.59 1.37 1.28 1.31 1.17 1.15 1.23 1.29 1.24
1.51 1.68 1.65 1.63 1.65 1.64 1.61 1.56 1.71 1.65 1.39 1.32 1.50 1.47 1.33 1.18 1.13 1.09 1.11 1.23 1.31 1.30 1.36 1.31 1.20 1.02 0.89 0.88 1.03 1.56 1.88 2.01 1.96 1.78 1.82 1.67 1.35 1.25 1.21 1.16 1.17 1.24 1.27
1.73 1.77 1.98 2.09 2.07 2.18 2.16 1.99 2.13 2.14 1.78 1.54 1.79 2.08 1.81 1.60 1.22 1.10 1.16 1.18 1.27 1.40 1.49 1.39 1.25 1.14 1.09 1.02 0.81 1.01 1.32 1.80 2.07 1.93 2.04 2.07 1.60 1.31 1.16 1.14 1.17 1.23 1.36
1.89 1.91 2.03 2.20 2.22 2.30 2.40 2.47 2.42 2.52 2.34 1.94 1.81 2.09 1.99 1.85 1.65 1.26 1.18 1.27 1.40 1.47 1.52 1.53 1.40 1.19 1.16 1.18 0.96 0.82 0.94 1.14 1.63 1.90 2.08 2.31 1.93 1.47 1.19 1.15 1.17 1.16 1.30
2.08 2.15 2.18 2.29 2.32 2.34 2.44 2.54 2.52 2.66 2.73 2.34 2.04 1.84 1.67 1.67 1.79 1.56 1.33 1.29 1.45 1.49 1.50 1.54 1.60 1.45 1.28 1.27 1.13 0.90 0.88 0.93 1.20 1.72 2.03 2.32 2.23 1.75 1.36 1.27 1.28 1.19 1.25
2.19 2.22 2.29 2.46 2.46 2.44 2.41 2.63 2.68 2.77 2.70 2.62 2.47 2.31 2.14 1.89 1.54 1.62 1.66 1.52 1.43 1.34 1.41 1.55 1.70 1.66 1.50 1.42 1.46 1.12 0.88 0.86 0.96 1.47 1.87 2.32 2.43 2.09 1.80 1.65 1.52 1.42 1.27
2.23 2.12 2.04 2.18 2.25 2.29 2.28 2.47 2.65 2.78 2.76 2.79 2.71 2.43 2.37 2.23 1.87 1.80 1.68 1.58 1.59 1.41 1.36 1.46 1.52 1.52 1.54 1.49 1.40 1.35 1.05 0.90 0.92 1.20 1.58 1.94 2.41 2.36 2.24 2.15 1.92 1.80 1.63
2.05 2.09 1.97 1.96 1.99 1.95 1.99 2.12 2.20 2.27 2.41 2.58 2.49 2.28 2.24 2.08 2.05 2.06 1.95 1.73 1.57 1.36 1.39 1.39 1.38 1.38 1.37 1.41 1.46 1.53 1.16 0.95 0.92 1.03 1.31 1.55 1.92 2.24 2.39 2.31 2.18 2.14 2.07
1.74 1.82 1.82 1.76 1.80 1.85 1.86 1.94 1.96 1.98 2.01 2.09 2.09 2.18 2.24 2.10 2.02 1.95 1.98 2.14 1.90 1.66 1.51 1.38 1.38 1.40 1.34 1.32 1.49 1.54 1.21 1.06 0.93 0.88 0.99 1.22 1.52 1.89 2.13 2.17 2.21 2.31 2.29
1.30 1.36 1.45 1.53 1.62 1.67 1.73 1.87 1.94 1.94 1.91 1.89 1.99 2.06 2.02 2.02 1.99 1.88 1.85 2.00 2.09 1.94 1.79 1.62 1.48 1.40 1.41 1.34 1.44 1.28 1.23 1.17 1.00 0.94 0.93 0.89 1.05 1.36 1.57 1.78 1.96 1.97 2.07
0.98 1.03 1.13 1.29 1.51 1.64 1.68 1.75 1.80 1.88 1.93 1.90 1.99 2.09 2.12 2.13 2.14 2.06 1.93 1.91 1.87 1.90 1.82 1.61 1.42 1.33 1.45 1.33 1.44 1.26 1.22 1.37 1.17 1.07 1.01 0.90 0.87 0.92 1.05 1.24 1.45 1.58 1.62
0.83 0.95 0.99 1.12 1.26 1.45 1.63 1.78 1.79 1.79 1.84 1.83 1.78 1.89 2.02 2.11 2.22 2.23 2.22 2.10 1.95 1.90 1.82 1.66 1.46 1.33 1.47 1.52 1.45 1.40 1.28 1.22 1.22 1.19 1.08 1.02 0.94 0.81 0.87 0.97 1.14 1.30 1.39
0.66 0.75 0.89 1.08 1.19 1.27 1.31 1.40 1.48 1.53 1.57 1.63 1.62 1.60 1.67 1.78 1.94 2.09 2.17 2.11 2.09 1.99 1.90 1.87 1.69 1.44 1.35 1.44 1.49 1.58 1.50 1.28 1.25 1.33 1.25 1.13 1.05 0.90 0.80 0.83 0.94 1.01 1.06
0.66 0.69 0.82 0.98 1.03 1.08 1.12 1.14 1.24 1.33 1.35 1.34 1.40 1.37 1.38 1.47 1.62 1.77 1.86 1.93 2.04 2.08 2.08 1.97 1.88 1.70 1.45 1.47 1.56 1.60 1.63 1.69 1.44 1.34 1.35 1.29 1.19 1.09 1.01 0.92 0.89 0.91 0.88
0.70 0.73 0.88 0.96 0.97 0.93 1.02 1.06 1.11 1.15 1.12 1.07 1.10 1.11 1.15 1.20 1.29 1.43 1.57 1.79 1.97 2.08 2.14 2.13 2.02 1.80 1.64 1.61 1.61 1.63 1.72 1.79 1.75 1.51 1.41 1.33 1.36 1.31 1.17 1.07 0.99 0.96 0.96
0.72 0.76 0.80 0.90 0.94 0.91 0.95 1.01 1.01 0.95 0.94 0.94 0.90 0.81 0.82 0.90 0.93 1.02 1.06 1.35 1.61 1.83 1.95 2.03 2.00 1.86 1.65 1.54 1.42 1.47 1.61 1.78 1.85 1.81 1.71 1.44 1.37 1.33 1.28 1.22 1.13 1.05 1.01
0.61 0.64 0.68 0.84 0.94 0.84 0.95 0.95 0.87 0.80 0.77 0.82 0.79 0.72 0.70 0.74 0.66 0.63 0.67 0.90 1.19 1.39 1.58 1.76 1.82 1.70 1.56 1.47 1.52 1.52 1.53 1.60 1.63 1.56 1.56 1.57 1.49 1.40 1.33 1.26 1.26 1.24 1.16
0.53 0.58 0.61 0.76 0.85 0.93 0.87 0.73 0.76 0.75 0.76 0.78 0.81 0.83 0.75 0.71 0.79 0.70 0.64 0.71 0.80 0.92 1.08 1.34 1.57 1.56 1.65 1.58 1.49 1.43 1.45 1.49 1.49 1.55 1.55 1.56 1.46 1.37 1.25 1.21 1.34 1.27 1.27
0.50 0.55 0.58 0.61 0.69 0.82 0.77 0.62 0.66 0.65 0.76 0.83 0.86 0.94 0.95 0.89 0.87 0.95 0.89 0.90 0.87 0.80 0.87 0.79 1.00 1.38 1.53 1.59 1.54 1.56 1.66 1.59 1.46 1.50 1.52 1.54 1.46 1.34 1.20 1.11 1.21 1.13 1.07
0.54 0.55 0.58 0.60 0.65 0.70 0.67 0.60 0.63 0.69 0.82 0.84 0.79 0.91 0.95 0.90 0.94 1.00 1.12 1.19 1.11 0.96 1.07 1.07 0.99 1.10 1.24 1.30 1.41 1.51 1.57 1.50 1.46 1.38 1.28 1.25 1.21 1.24 1.28 1.19 1.15 1.19 1.09
0.51 0.53 0.51 0.50 0.54 0.56 0.61 0.53 0.65 0.75 0.80 0.81 0.82 0.88 1.02 0.95 0.93 0.90 0.99 1.13 1.12 0.99 0.87 0.91 0.88 0.78 0.72 0.82 1.02 1.19 1.48 1.59 1.54 1.44 1.24 1.17 1.19 1.19 1.23 1.16 1.06 1.08 1.06